Location: �perlecques
(50.8057°N, 2.1521°E)
Time: 20:32:37
(UTC+00:00)

Vanguard 3 - Pass Details

Date: 01 August 2021
Orbit: 510 x 3260 km, 33.3° (Epoch: 17 September)

Event Time Altitude Azimuth Distance (km) Brightness Sun altitude
Rises 23:41:30 0° 274° (W) 7,129 12.1 -21.1°
Reaches altitude 10° 23:47:41 10° 263° (W) 6,198 11.6 -21.1°
Maximum altitude 00:01:06 24° 220° (SW) 4,873 10.6 -21.2°
Enters shadow 00:04:44 22° 204° (SSW) 4,813 10.5 -21.2°
